Weather History for Milford, UT

Change the Weather History Date:

Tuesday, January 28, 2014

  Actual Average Record
Temperature  
Mean Temperature 36 °F -  
Max Temperature 48 °F 41 °F 57 °F (1998)
Min Temperature 23 °F 19 °F 0 °F (2007)
Degree Days  
Heating Degree Days 28    
Moisture  
Dew Point 17 °F    
Average Humidity 50    
Maximum Humidity 75    
Minimum Humidity 15    
Precipitation  
Precipitation 0.00 in - - ()
Sea Level Pressure  
Sea Level Pressure 30.25 in    
Wind  
Wind Speed 9 mph (North)    
Max Wind Speed 14 mph    
Max Gust Speed -    
Visibility 10 miles    
Events      
Averages and records for this station are not official NWS values.
T = Trace of Precipitation, MM = Missing Value Source: NWS Daily Summary

Daily Weather History Graph

Daily Weather History Graph

Search for Another Location

Airport:

Trip Planner

Search our weather history database for the weather conditions in past years. The results will help you decide how hot, cold, wet, or windy it might be!

Date:

Astronomy

Jan. 28, 2014 Rise Set
Actual Time 7:40 AM MST 5:49 PM MST
Civil Twilight 7:12 AM MST 6:18 PM MST
Nautical Twilight 6:40 AM MST 6:50 PM MST
Astronomical Twilight 6:09 AM MST 7:21 PM MST
Moon 5:25 AM MST (1/28) 3:44 PM MST (1/28)
Length of Visible Light 11h 05m
Length of Day
10h 09m
Waning Crescent, 7% of the Moon is Illuminated
Jan 28
Waning Crescent
Jan 30
New
Feb 6
First Quarter
Feb 14
Full
Feb 22
Last Quarter

Hourly Weather History & Observations

Time (MST) Temp. Windchill Dew Point Humidity Pressure Visibility Wind Dir Wind Speed Gust Speed Precip Events Conditions
12:52 AM 24.1 °F 17.0 °F 12.0 °F 60% 30.17 in 10.0 mi North 5.8 mph - N/A   Clear
1:52 AM 23.0 °F 13.9 °F 12.9 °F 65% 30.18 in 10.0 mi NNE 8.1 mph - N/A   Clear
2:52 AM 30.9 °F 22.2 °F 17.1 °F 57% 30.16 in 10.0 mi North 10.4 mph - N/A   Clear
3:52 AM 34.0 °F 24.6 °F 19.0 °F 54% 30.15 in 10.0 mi North 13.8 mph - N/A   Clear
4:52 AM 33.1 °F 23.4 °F 18.0 °F 54% 30.17 in 10.0 mi North 13.8 mph - N/A   Clear
5:52 AM 28.9 °F 19.8 °F 19.0 °F 67% 30.24 in 10.0 mi North 10.4 mph - N/A   Clear
6:52 AM 27.0 °F 23.0 °F 18.0 °F 69% 30.29 in 10.0 mi Variable 3.5 mph - N/A   Clear
7:52 AM 26.1 °F 20.5 °F 19.0 °F 75% 30.32 in 10.0 mi NNE 4.6 mph - N/A   Clear
8:52 AM 32.0 °F 24.8 °F 21.0 °F 64% 30.31 in 10.0 mi North 8.1 mph - N/A   Clear
9:52 AM 37.0 °F 28.9 °F 21.0 °F 52% 30.30 in 10.0 mi North 12.7 mph - N/A   Clear
10:52 AM 39.0 °F 31.8 °F 21.0 °F 49% 30.31 in 10.0 mi North 11.5 mph - N/A   Clear
11:52 AM 39.9 °F 33.9 °F 21.0 °F 47% 30.31 in 10.0 mi NE 9.2 mph - N/A   Clear
12:52 PM 43.0 °F 37.7 °F 19.9 °F 40% 30.28 in 10.0 mi NNE 9.2 mph - N/A   Clear
1:52 PM 46.0 °F 40.6 °F 19.9 °F 35% 30.25 in 10.0 mi North 11.5 mph - N/A   Clear
2:52 PM 46.9 °F - 18.0 °F 32% 30.19 in 10.0 mi North 11.5 mph - N/A   Clear
3:52 PM 46.9 °F - 16.0 °F 29% 30.19 in 10.0 mi North 11.5 mph - N/A   Clear
4:52 PM 46.0 °F 39.9 °F 14.0 °F 28% 30.19 in 10.0 mi North 13.8 mph - N/A   Clear
5:52 PM 36.0 °F 30.3 °F 14.0 °F 41% 30.26 in 10.0 mi NNW 6.9 mph - N/A   Clear
6:52 PM 28.0 °F 20.0 °F 12.9 °F 53% 30.30 in 10.0 mi North 8.1 mph - N/A   Clear
7:52 PM 27.0 °F 23.0 °F 14.0 °F 58% 30.30 in 10.0 mi WNW 3.5 mph - N/A   Clear
8:52 PM 26.1 °F 21.9 °F 12.9 °F 58% 30.29 in 10.0 mi South 3.5 mph - N/A   Clear
9:52 PM 26.1 °F 21.9 °F 14.0 °F 60% 30.28 in 10.0 mi WSW 3.5 mph - N/A   Clear
10:52 PM 26.1 °F 19.4 °F 14.0 °F 60% 30.27 in 10.0 mi West 5.8 mph - N/A   Clear
11:52 PM 23.0 °F 18.4 °F 12.0 °F 63% 30.29 in 10.0 mi South 3.5 mph - N/A   Clear